Flag for U.S.A. Weather past 2 weeks in Jefferson City, Missouri, U.S.A.

Now
60 °F

Clear.


Feels Like: 60 °F
Forecast: 60 / 82 °F
Wind: No wind

Location: Jefferson City Memorial Airport

Current Time: Sep 30, 2014 at 1:53:55 AM

Latest Report: Sep 30, 2014 at 12:53 AM


Visibility: 7 mi

Pressure: 29.92 "Hg

Humidity: 90%

Dew point: 57 °F

Location of Jefferson CityLocation

Historic Weather in Jefferson City — Graph

°F

Jefferson City temperature yesterday

Maximum temperature yesterday: 86 °F (at 2:53 PM)
Minimum temperature yesterday: 56 °F (at 5:01 AM)
Average temperature yesterday: 69 °F

Past Weeks' High & Low Weather Summary

 TemperatureHumidityPressure
High87 °F (Sep 20, 2:53 PM)100% (Sep 19, 7:53 AM)30.30 "Hg (Sep 19, 7:53 AM)
Low46 °F (Sep 23, 5:53 AM)28% (Sep 24, 3:53 PM)29.86 "Hg (Sep 17, 4:53 PM)
Average66 °F74%30.08 "Hg
* Reported Sep 15 12:53 AM — Sep 30 12:53 AM, Jefferson City, Weather by CustomWeather, © 2014

Note: Actual official high and low records may vary slightly from our data, if they occured in-between our weather recording intervals... More about our weather records

Advertising

Jefferson City weather history for previous 24 hours

 ConditionsComfort  
Time TempWeatherWind HumidityBarometerVisibility
12:53 AM
Sep 30
60 °FClear.No wind90%29.92 "Hg7 mi
11:53 PM
Sep 29
60 °FClear.No wind93%29.92 "Hg7 mi
10:53 PM63 °FClear.No wind87%29.92 "Hg9 mi
9:53 PM64 °FClear.3 mph84%29.93 "Hg10 mi
8:53 PM66 °FClear.No wind84%29.93 "Hg10 mi
7:53 PM71 °FSunny.No wind73%29.92 "Hg10 mi
6:53 PM75 °FSunny.3 mph64%29.92 "Hg10 mi
5:53 PM80 °FSunny.No wind51%29.92 "Hg10 mi
4:53 PM83 °FSunny.3 mph37%29.92 "Hg10 mi
3:53 PM86 °FSunny.3 mph33%29.93 "Hg9 mi
2:53 PM86 °FScattered clouds.7 mph33%29.94 "Hg10 mi
1:53 PM85 °FSunny.3 mph35%29.97 "Hg10 mi
12:53 PM85 °FSunny.3 mph35%30.00 "Hg10 mi
11:53 AM81 °FSunny.No wind38%30.03 "Hg10 mi
10:53 AM76 °FSunny.No wind52%30.04 "Hg10 mi
9:53 AM68 °FSunny.3 mph78%30.05 "Hg10 mi
8:53 AM61 °FFog.No wind97%30.05 "Hg5 mi
8:01 AM58 °FFog.No wind100%30.08 "Hg2 mi
6:53 AM57 °FFog.No wind96%30.03 "Hg0 mi
6:01 AM57 °FFog.No wind96%30.06 "Hg2 mi
5:03 AM57 °FFog.No wind93%30.05 "Hg2 mi
5:01 AM56 °FFog.No wind97%30.05 "Hg1 mi
3:53 AM59 °FClear.No wind93%30.01 "Hg7 mi
2:53 AM60 °FClear.No wind90%30.01 "Hg9 mi
1:53 AM61 °FClear.3 mph93%30.02 "Hg8 mi
Weather by CustomWeather, © 2014

See weather overviewHow to use our weather pages